Year,Month,Day,Hour,Minute,Value (Times are PST for temperature in C)
2012,04,06,00,00,0.70
2012,04,06,00,01,0.70
2012,04,06,00,02,0.60
2012,04,06,00,03,0.60
2012,04,06,00,04,0.60
2012,04,06,00,05,0.60
2012,04,06,00,06,0.60
2012,04,06,00,07,0.60
2012,04,06,00,08,0.60
2012,04,06,00,09,0.60
2012,04,06,00,10,0.60
2012,04,06,00,11,0.50
2012,04,06,00,12,0.50
2012,04,06,00,13,0.50
2012,04,06,00,14,0.50
2012,04,06,00,15,0.50
2012,04,06,00,16,0.40
2012,04,06,00,17,0.40
2012,04,06,00,18,0.40
2012,04,06,00,19,0.40
2012,04,06,00,20,0.40
2012,04,06,00,21,0.40
2012,04,06,00,22,0.40
2012,04,06,00,23,0.40
2012,04,06,00,24,0.30
2012,04,06,00,25,0.30
2012,04,06,00,26,0.30
2012,04,06,00,27,0.30
2012,04,06,00,28,0.30
2012,04,06,00,29,0.30
2012,04,06,00,30,0.30
2012,04,06,00,31,0.30
2012,04,06,00,32,0.30
2012,04,06,00,33,0.20
2012,04,06,00,34,0.20
2012,04,06,00,35,0.20
2012,04,06,00,36,0.20
2012,04,06,00,37,0.20
2012,04,06,00,38,0.20
2012,04,06,00,39,0.20
2012,04,06,00,40,0.10
2012,04,06,00,41,0.10
2012,04,06,00,42,0.10
2012,04,06,00,43,0.10
2012,04,06,00,44,0.10
2012,04,06,00,45,0.10
2012,04,06,00,46,0.10
2012,04,06,00,47,0.00
2012,04,06,00,48,-0.10
2012,04,06,00,49,-0.10
2012,04,06,00,50,-0.10
2012,04,06,00,51,-0.10
2012,04,06,00,52,-0.10
2012,04,06,00,53,-0.10
2012,04,06,00,54,-0.10
2012,04,06,00,55,-0.10
2012,04,06,00,56,-0.10
2012,04,06,00,57,-0.10
2012,04,06,00,58,-0.10
2012,04,06,00,59,-0.10
2012,04,06,01,00,-0.10
2012,04,06,01,01,-0.20
2012,04,06,01,02,-0.20
2012,04,06,01,03,-0.20
2012,04,06,01,04,-0.20
2012,04,06,01,05,-0.20
2012,04,06,01,06,-0.20
2012,04,06,01,07,-0.20
2012,04,06,01,08,-0.20
2012,04,06,01,09,-0.20
2012,04,06,01,10,-0.20
2012,04,06,01,11,-0.20
2012,04,06,01,12,-0.20
2012,04,06,01,13,-0.30
2012,04,06,01,14,-0.30
2012,04,06,01,15,-0.30
2012,04,06,01,16,-0.30
2012,04,06,01,17,-0.30
2012,04,06,01,18,-0.30
2012,04,06,01,19,-0.40
2012,04,06,01,20,-0.40
2012,04,06,01,21,-0.40
2012,04,06,01,22,-0.40
2012,04,06,01,23,-0.40
2012,04,06,01,24,-0.40
2012,04,06,01,25,-0.60
2012,04,06,01,26,-0.60
2012,04,06,01,27,-0.60
2012,04,06,01,28,-0.60
2012,04,06,01,29,-0.60
2012,04,06,01,30,-0.60
2012,04,06,01,31,-0.60
2012,04,06,01,32,-0.60
2012,04,06,01,33,-0.60
2012,04,06,01,34,-0.60
2012,04,06,01,35,-0.60
2012,04,06,01,36,-0.70
2012,04,06,01,37,-0.70
2012,04,06,01,38,-0.70
2012,04,06,01,39,-0.70
2012,04,06,01,40,-0.70
2012,04,06,01,41,-0.70
2012,04,06,01,42,-0.70
2012,04,06,01,43,-0.70
2012,04,06,01,44,-0.60
2012,04,06,01,45,-0.60
2012,04,06,01,46,-0.60
2012,04,06,01,47,-0.60
2012,04,06,01,48,-0.60
2012,04,06,01,49,-0.60
2012,04,06,01,50,-0.60
2012,04,06,01,51,-0.70
2012,04,06,01,52,-0.70
2012,04,06,01,53,-0.70
2012,04,06,01,54,-0.70
2012,04,06,01,55,-0.70
2012,04,06,01,56,-0.80
2012,04,06,01,57,-0.80
2012,04,06,01,58,-0.80
2012,04,06,01,59,-0.80
2012,04,06,02,00,-0.80
2012,04,06,02,01,-0.80
2012,04,06,02,02,-0.80
2012,04,06,02,03,-0.80
2012,04,06,02,04,-0.80
2012,04,06,02,05,-0.90
2012,04,06,02,06,-0.90
2012,04,06,02,07,-0.90
2012,04,06,02,08,-0.90
2012,04,06,02,09,-0.90
2012,04,06,02,10,-0.90
2012,04,06,02,11,-0.90
2012,04,06,02,12,-0.90
2012,04,06,02,13,-0.90
2012,04,06,02,14,-1.00
2012,04,06,02,15,-1.10
2012,04,06,02,16,-1.10
2012,04,06,02,17,-1.10
2012,04,06,02,18,-1.10
2012,04,06,02,19,-1.10
2012,04,06,02,20,-1.10
2012,04,06,02,21,-1.10
2012,04,06,02,22,-1.20
2012,04,06,02,23,-1.20
2012,04,06,02,24,-1.20
2012,04,06,02,25,-1.20
2012,04,06,02,26,-1.20
2012,04,06,02,27,-1.20
2012,04,06,02,28,-1.20
2012,04,06,02,29,-1.20
2012,04,06,02,30,-1.20
2012,04,06,02,31,-1.10
2012,04,06,02,32,-1.10
2012,04,06,02,33,-1.10
2012,04,06,02,34,-1.10
2012,04,06,02,35,-1.10
2012,04,06,02,36,-1.10
2012,04,06,02,37,-1.10
2012,04,06,02,38,-1.10
2012,04,06,02,39,-1.10
2012,04,06,02,40,-1.10
2012,04,06,02,41,-1.10
2012,04,06,02,42,-1.10
2012,04,06,02,43,-1.10
2012,04,06,02,44,-1.10
2012,04,06,02,45,-1.10
2012,04,06,02,46,-1.20
2012,04,06,02,47,-1.20
2012,04,06,02,48,-1.20
2012,04,06,02,49,-1.20
2012,04,06,02,50,-1.20
2012,04,06,02,51,-1.20
2012,04,06,02,52,-1.20
2012,04,06,02,53,-1.20
2012,04,06,02,54,-1.20
2012,04,06,02,55,-1.30
2012,04,06,02,56,-1.30
2012,04,06,02,57,-1.30
2012,04,06,02,58,-1.30
2012,04,06,02,59,-1.30
2012,04,06,03,00,-1.30
2012,04,06,03,01,-1.30
2012,04,06,03,02,-1.30
2012,04,06,03,03,-1.30
2012,04,06,03,04,-1.30
2012,04,06,03,05,-1.30
2012,04,06,03,06,-1.30
2012,04,06,03,07,-1.30
2012,04,06,03,08,-1.30
2012,04,06,03,09,-1.30
2012,04,06,03,10,-1.30
2012,04,06,03,11,-1.30
2012,04,06,03,12,-1.40
2012,04,06,03,13,-1.40
2012,04,06,03,14,-1.40
2012,04,06,03,15,-1.40
2012,04,06,03,16,-1.40
2012,04,06,03,17,-1.40
2012,04,06,03,18,-1.40
2012,04,06,03,19,-1.40
2012,04,06,03,20,-1.40
2012,04,06,03,21,-1.40
2012,04,06,03,22,-1.50
2012,04,06,03,23,-1.50
2012,04,06,03,24,-1.50
2012,04,06,03,25,-1.60
2012,04,06,03,26,-1.60
2012,04,06,03,27,-1.60
2012,04,06,03,28,-1.70
2012,04,06,03,29,-1.70
2012,04,06,03,30,-1.70
2012,04,06,03,31,-1.70
2012,04,06,03,32,-1.70
2012,04,06,03,33,-1.80
2012,04,06,03,34,-1.80
2012,04,06,03,35,-1.80
2012,04,06,03,36,-1.80
2012,04,06,03,37,-1.80
2012,04,06,03,38,-1.80
2012,04,06,03,39,-1.80
2012,04,06,03,40,-1.80
2012,04,06,03,41,-1.80
2012,04,06,03,42,-1.80
2012,04,06,03,43,-1.80
2012,04,06,03,44,-1.80
2012,04,06,03,45,-1.80
2012,04,06,03,46,-1.80
2012,04,06,03,47,-1.80
2012,04,06,03,48,-1.80
2012,04,06,03,49,-1.80
2012,04,06,03,50,-1.80
2012,04,06,03,51,-1.80
2012,04,06,03,52,-1.80
2012,04,06,03,53,-1.80
2012,04,06,03,54,-1.80
2012,04,06,03,55,-1.80
2012,04,06,03,56,-1.80
2012,04,06,03,57,-1.80
2012,04,06,03,58,-1.80
2012,04,06,03,59,-1.80
2012,04,06,04,00,-1.80
2012,04,06,04,01,-1.80
2012,04,06,04,02,-1.80
2012,04,06,04,03,-1.80
2012,04,06,04,04,-1.80
2012,04,06,04,05,-1.80
2012,04,06,04,06,-1.80
2012,04,06,04,07,-1.80
2012,04,06,04,08,-1.80
2012,04,06,04,09,-1.80
2012,04,06,04,10,-1.80
2012,04,06,04,11,-1.80
2012,04,06,04,12,-1.80
2012,04,06,04,13,-1.80
2012,04,06,04,14,-1.70
2012,04,06,04,15,-1.70
2012,04,06,04,16,-1.70
2012,04,06,04,17,-1.70
2012,04,06,04,18,-1.70
2012,04,06,04,19,-1.70
2012,04,06,04,20,-1.70
2012,04,06,04,21,-1.70
2012,04,06,04,22,-1.70
2012,04,06,04,23,-1.70
2012,04,06,04,24,-1.80
2012,04,06,04,25,-1.80
2012,04,06,04,26,-1.80
2012,04,06,04,27,-1.80
2012,04,06,04,28,-1.80
2012,04,06,04,29,-1.80
2012,04,06,04,30,-1.80
2012,04,06,04,31,-1.80
2012,04,06,04,32,-1.80
2012,04,06,04,33,-1.80
2012,04,06,04,34,-1.80
2012,04,06,04,35,-1.90
2012,04,06,04,36,-1.90
2012,04,06,04,37,-1.90
2012,04,06,04,38,-1.90
2012,04,06,04,39,-1.90
2012,04,06,04,40,-1.90
2012,04,06,04,41,-1.90
2012,04,06,04,42,-1.90
2012,04,06,04,43,-1.90
2012,04,06,04,44,-1.90
2012,04,06,04,45,-2.00
2012,04,06,04,46,-2.00
2012,04,06,04,47,-2.00
2012,04,06,04,48,-2.00
2012,04,06,04,49,-2.00
2012,04,06,04,50,-2.10
2012,04,06,04,51,-2.10
2012,04,06,04,52,-2.10
2012,04,06,04,53,-2.10
2012,04,06,04,54,-2.10
2012,04,06,04,55,-2.00
2012,04,06,04,56,-2.00
2012,04,06,04,57,-2.00
2012,04,06,04,58,-2.00
2012,04,06,04,59,-2.10
2012,04,06,05,00,-2.10
2012,04,06,05,01,-2.10
2012,04,06,05,02,-2.10
2012,04,06,05,03,-2.10
2012,04,06,05,04,-2.10
2012,04,06,05,05,-2.10
2012,04,06,05,06,-2.10
2012,04,06,05,07,-2.10
2012,04,06,05,08,-2.10
2012,04,06,05,09,-2.10
2012,04,06,05,10,-2.10
2012,04,06,05,11,-2.10
2012,04,06,05,12,-2.10
2012,04,06,05,13,-2.10
2012,04,06,05,14,-2.10
2012,04,06,05,15,-2.10
2012,04,06,05,16,-2.00
2012,04,06,05,17,-2.00
2012,04,06,05,18,-2.00
2012,04,06,05,19,-2.00
2012,04,06,05,20,-2.00
2012,04,06,05,21,-2.00
2012,04,06,05,22,-2.00
2012,04,06,05,23,-2.00
2012,04,06,05,24,-2.00
2012,04,06,05,25,-2.00
2012,04,06,05,26,-2.00
2012,04,06,05,27,-2.00
2012,04,06,05,28,-2.00
2012,04,06,05,29,-2.00
2012,04,06,05,30,-2.00
2012,04,06,05,31,-2.00
2012,04,06,05,32,-2.00
2012,04,06,05,33,-2.00
2012,04,06,05,34,-2.00
2012,04,06,05,35,-2.00
2012,04,06,05,36,-2.10
2012,04,06,05,37,-2.10
2012,04,06,05,38,-2.10
2012,04,06,05,39,-2.10
2012,04,06,05,40,-2.10
2012,04,06,05,41,-2.10
2012,04,06,05,42,-2.20
2012,04,06,05,43,-2.20
2012,04,06,05,44,-2.20
2012,04,06,05,45,-2.20
2012,04,06,05,46,-2.30
2012,04,06,05,47,-2.30
2012,04,06,05,48,-2.30
2012,04,06,05,49,-2.30
2012,04,06,05,50,-2.30
2012,04,06,05,51,-2.30
2012,04,06,05,52,-2.30
2012,04,06,05,53,-2.30
2012,04,06,05,54,-2.30
2012,04,06,05,55,-2.30
2012,04,06,05,56,-2.30
2012,04,06,05,57,-2.30
2012,04,06,05,58,-2.30
2012,04,06,05,59,-2.30
2012,04,06,06,00,-2.30
2012,04,06,06,01,-2.30
2012,04,06,06,02,-2.30
2012,04,06,06,03,-2.30
2012,04,06,06,04,-2.30
2012,04,06,06,05,-2.30
2012,04,06,06,06,-2.30
2012,04,06,06,07,-2.30
2012,04,06,06,08,-2.30
2012,04,06,06,09,-2.30
2012,04,06,06,10,-2.30
2012,04,06,06,11,-2.20
2012,04,06,06,12,-2.20
2012,04,06,06,13,-2.20
2012,04,06,06,14,-2.20
2012,04,06,06,15,-2.20
2012,04,06,06,16,-2.20
2012,04,06,06,17,-2.20
2012,04,06,06,18,-2.20
2012,04,06,06,19,-2.20
2012,04,06,06,20,-2.20
2012,04,06,06,21,-2.20
2012,04,06,06,22,-2.20
2012,04,06,06,23,-2.20
2012,04,06,06,24,-2.20
2012,04,06,06,25,-2.20
2012,04,06,06,26,-2.20
2012,04,06,06,27,-2.20
2012,04,06,06,28,-2.20
2012,04,06,06,29,-2.20
2012,04,06,06,30,-2.30
2012,04,06,06,31,-2.30
2012,04,06,06,32,-2.30
2012,04,06,06,33,-2.30
2012,04,06,06,34,-2.30
2012,04,06,06,35,-2.30
2012,04,06,06,36,-2.30
2012,04,06,06,37,-2.40
2012,04,06,06,38,-2.40
2012,04,06,06,39,-2.40
2012,04,06,06,40,-2.40
2012,04,06,06,41,-2.40
2012,04,06,06,42,-2.40
2012,04,06,06,43,-2.40
2012,04,06,06,44,-2.40
2012,04,06,06,45,-2.40
2012,04,06,06,46,-2.40
2012,04,06,06,47,-2.40
2012,04,06,06,48,-2.40
2012,04,06,06,49,-2.40
2012,04,06,06,50,-2.30
2012,04,06,06,51,-2.30
2012,04,06,06,52,-2.30
2012,04,06,06,53,-2.30
2012,04,06,06,54,-2.20
2012,04,06,06,55,-2.20
2012,04,06,06,56,-2.20
2012,04,06,06,57,-2.20
2012,04,06,06,58,-2.20
2012,04,06,06,59,-2.20
2012,04,06,07,00,-2.20
2012,04,06,07,01,-2.10
2012,04,06,07,02,-2.10
2012,04,06,07,03,-2.10
2012,04,06,07,04,-2.10
2012,04,06,07,05,-2.10
2012,04,06,07,06,-2.10
2012,04,06,07,07,-2.10
2012,04,06,07,08,-2.10
2012,04,06,07,09,-2.10
2012,04,06,07,10,-2.10
2012,04,06,07,11,-2.10
2012,04,06,07,12,-2.10
2012,04,06,07,13,-2.10
2012,04,06,07,14,-2.10
2012,04,06,07,15,-2.10
2012,04,06,07,16,-2.10
2012,04,06,07,17,-2.10
2012,04,06,07,18,-2.10
2012,04,06,07,19,-2.10
2012,04,06,07,20,-2.10
2012,04,06,07,21,-2.10
2012,04,06,07,22,-2.10
2012,04,06,07,23,-2.10
2012,04,06,07,24,-2.20
2012,04,06,07,25,-2.20
2012,04,06,07,26,-2.20
2012,04,06,07,27,-2.20
2012,04,06,07,28,-2.20
2012,04,06,07,29,-2.20
2012,04,06,07,30,-2.10
2012,04,06,07,31,-2.10
2012,04,06,07,32,-2.10
2012,04,06,07,33,-2.10
2012,04,06,07,34,-2.10
2012,04,06,07,35,-2.00
2012,04,06,07,36,-2.00
2012,04,06,07,37,-2.00
2012,04,06,07,38,-2.00
2012,04,06,07,39,-2.00
2012,04,06,07,40,-1.90
2012,04,06,07,41,-1.90
2012,04,06,07,42,-1.90
2012,04,06,07,43,-1.90
2012,04,06,07,44,-1.90
2012,04,06,07,45,-1.80
2012,04,06,07,46,-1.80
2012,04,06,07,47,-1.80
2012,04,06,07,48,-1.80
2012,04,06,07,49,-1.80
2012,04,06,07,50,-1.80
2012,04,06,07,51,-1.70
2012,04,06,07,52,-1.70
2012,04,06,07,53,-1.70
2012,04,06,07,54,-1.60
2012,04,06,07,55,-1.60
2012,04,06,07,56,-1.50
2012,04,06,07,57,-1.50
2012,04,06,07,58,-1.40
2012,04,06,07,59,-1.40
2012,04,06,08,00,-1.40
2012,04,06,08,01,-1.40
2012,04,06,08,02,-1.40
2012,04,06,08,03,-1.30
2012,04,06,08,04,-1.30
2012,04,06,08,05,-1.30
2012,04,06,08,06,-1.20
2012,04,06,08,07,-1.20
2012,04,06,08,08,-1.10
2012,04,06,08,09,-1.10
2012,04,06,08,10,-1.00
2012,04,06,08,11,-0.90
2012,04,06,08,12,-0.80
2012,04,06,08,13,-0.60
2012,04,06,08,14,-0.50
2012,04,06,08,15,-0.30
2012,04,06,08,16,-0.10
2012,04,06,08,17,0.00
2012,04,06,08,18,0.20
2012,04,06,08,19,0.30
2012,04,06,08,20,0.40
2012,04,06,08,21,0.50
2012,04,06,08,22,0.70
2012,04,06,08,23,0.80
2012,04,06,08,24,0.80
2012,04,06,08,25,0.90
2012,04,06,08,26,1.00
2012,04,06,08,27,1.10
2012,04,06,08,28,1.10
2012,04,06,08,29,1.20
2012,04,06,08,30,1.30
2012,04,06,08,31,1.30
2012,04,06,08,32,1.30
2012,04,06,08,33,1.30
2012,04,06,08,34,1.40
2012,04,06,08,35,1.50
2012,04,06,08,36,1.50
2012,04,06,08,37,1.60
2012,04,06,08,38,1.60
2012,04,06,08,39,1.70
2012,04,06,08,40,1.80
2012,04,06,08,41,1.90
2012,04,06,08,42,1.90
2012,04,06,08,43,2.00
2012,04,06,08,44,2.00
2012,04,06,08,45,2.10
2012,04,06,08,46,2.10
2012,04,06,08,47,2.20
2012,04,06,08,48,2.20
2012,04,06,08,49,2.30
2012,04,06,08,50,2.30
2012,04,06,08,51,2.40
2012,04,06,08,52,2.50
2012,04,06,08,53,2.60
2012,04,06,08,54,2.70
2012,04,06,08,55,2.80
2012,04,06,08,56,2.90
2012,04,06,08,57,2.90
2012,04,06,08,58,3.10
2012,04,06,08,59,3.10
2012,04,06,09,00,3.20
2012,04,06,09,01,3.20
2012,04,06,09,02,3.30
2012,04,06,09,03,3.30
2012,04,06,09,04,3.30
2012,04,06,09,05,3.30
2012,04,06,09,06,3.40
2012,04,06,09,07,3.50
2012,04,06,09,08,3.60
2012,04,06,09,09,3.60
2012,04,06,09,10,3.70
2012,04,06,09,11,3.80
2012,04,06,09,12,3.90
2012,04,06,09,13,4.00
2012,04,06,09,14,4.10
2012,04,06,09,15,4.20
2012,04,06,09,16,4.40
2012,04,06,09,17,4.50
2012,04,06,09,18,4.60
2012,04,06,09,19,4.70
2012,04,06,09,20,4.80
2012,04,06,09,21,4.80
2012,04,06,09,22,4.90
2012,04,06,09,23,4.90
2012,04,06,09,24,4.90
2012,04,06,09,25,4.90
2012,04,06,09,26,4.90
2012,04,06,09,27,4.90
2012,04,06,09,28,4.90
2012,04,06,09,29,4.90
2012,04,06,09,30,4.90
2012,04,06,09,31,5.00
2012,04,06,09,32,5.10
2012,04,06,09,33,5.10
2012,04,06,09,34,5.10
2012,04,06,09,35,5.20
2012,04,06,09,36,5.20
2012,04,06,09,37,5.30
2012,04,06,09,38,5.30
2012,04,06,09,39,5.30
2012,04,06,09,40,5.30
2012,04,06,09,41,5.30
2012,04,06,09,42,5.30
2012,04,06,09,43,5.30
2012,04,06,09,44,5.30
2012,04,06,09,45,5.30
2012,04,06,09,46,5.30
2012,04,06,09,47,5.30
2012,04,06,09,48,5.30
2012,04,06,09,49,5.30
2012,04,06,09,50,5.30
2012,04,06,09,51,5.30
2012,04,06,09,52,5.30
2012,04,06,09,53,5.30
2012,04,06,09,54,5.30
2012,04,06,09,55,5.30
2012,04,06,09,56,5.30
2012,04,06,09,57,5.30
2012,04,06,09,58,5.30
2012,04,06,09,59,5.40
2012,04,06,10,00,5.40
2012,04,06,10,01,5.50
2012,04,06,10,02,5.50
2012,04,06,10,03,5.60
2012,04,06,10,04,5.60
2012,04,06,10,05,5.70
2012,04,06,10,06,5.80
2012,04,06,10,07,5.80
2012,04,06,10,08,5.90
2012,04,06,10,09,6.00
2012,04,06,10,10,6.10
2012,04,06,10,11,6.20
2012,04,06,10,12,6.30
2012,04,06,10,13,6.40
2012,04,06,10,14,6.50
2012,04,06,10,15,6.60
2012,04,06,10,16,6.70
2012,04,06,10,17,6.80
2012,04,06,10,18,7.00
2012,04,06,10,19,7.10
2012,04,06,10,20,7.30
2012,04,06,10,21,7.50
2012,04,06,10,22,7.70
2012,04,06,10,23,7.80
2012,04,06,10,24,8.00
2012,04,06,10,25,8.10
2012,04,06,10,26,8.30
2012,04,06,10,27,8.50
2012,04,06,10,28,8.60
2012,04,06,10,29,8.70
2012,04,06,10,30,8.80
2012,04,06,10,31,8.90
2012,04,06,10,32,8.90
2012,04,06,10,33,9.00
2012,04,06,10,34,8.90
2012,04,06,10,35,8.90
2012,04,06,10,36,8.80
2012,04,06,10,37,8.80
2012,04,06,10,38,8.70
2012,04,06,10,39,8.70
2012,04,06,10,40,8.70
2012,04,06,10,41,8.80
2012,04,06,10,42,8.90
2012,04,06,10,43,8.90
2012,04,06,10,44,8.90
2012,04,06,10,45,9.00
2012,04,06,10,46,9.00
2012,04,06,10,47,9.00
2012,04,06,10,48,9.10
2012,04,06,10,49,9.10
2012,04,06,10,50,9.10
2012,04,06,10,51,9.10
2012,04,06,10,52,9.10
2012,04,06,10,53,9.00
2012,04,06,10,54,9.00
2012,04,06,10,55,8.90
2012,04,06,10,56,8.90
2012,04,06,10,57,8.90
2012,04,06,10,58,8.80
2012,04,06,10,59,8.70
2012,04,06,11,00,8.70
2012,04,06,11,01,8.60
2012,04,06,11,02,8.60
2012,04,06,11,03,8.60
2012,04,06,11,04,8.50
2012,04,06,11,05,8.50
2012,04,06,11,06,8.50
2012,04,06,11,07,8.50
2012,04,06,11,08,8.30
2012,04,06,11,09,8.20
2012,04,06,11,10,8.20
2012,04,06,11,11,8.20
2012,04,06,11,12,8.20
2012,04,06,11,13,8.30
2012,04,06,11,14,8.30
2012,04,06,11,15,8.30
2012,04,06,11,16,8.30
2012,04,06,11,17,8.30
2012,04,06,11,18,8.40
2012,04,06,11,19,8.40
2012,04,06,11,20,8.50
2012,04,06,11,21,8.50
2012,04,06,11,22,8.40
2012,04,06,11,23,8.40
2012,04,06,11,24,8.40
2012,04,06,11,25,8.40
2012,04,06,11,26,8.40
2012,04,06,11,27,8.40
2012,04,06,11,28,8.50
2012,04,06,11,29,8.50
2012,04,06,11,30,8.50
2012,04,06,11,31,8.50
2012,04,06,11,32,8.50
2012,04,06,11,33,8.60
2012,04,06,11,34,8.60
2012,04,06,11,35,8.70
2012,04,06,11,36,8.60
2012,04,06,11,37,8.60
2012,04,06,11,38,8.50
2012,04,06,11,39,8.30
2012,04,06,11,40,8.20
2012,04,06,11,41,8.20
2012,04,06,11,42,8.20
2012,04,06,11,43,8.20
2012,04,06,11,44,8.10
2012,04,06,11,45,8.10
2012,04,06,11,46,8.00
2012,04,06,11,47,8.00
2012,04,06,11,48,8.00
2012,04,06,11,49,8.00
2012,04,06,11,50,8.00
2012,04,06,11,51,8.00
2012,04,06,11,52,8.00
2012,04,06,11,53,8.00
2012,04,06,11,54,7.90
2012,04,06,11,55,7.90
2012,04,06,11,56,7.90
2012,04,06,11,57,7.90
2012,04,06,11,58,7.90
2012,04,06,11,59,7.90
2012,04,06,12,00,7.90
2012,04,06,12,01,7.90
2012,04,06,12,02,8.00
2012,04,06,12,03,8.00
2012,04,06,12,04,8.10
2012,04,06,12,05,8.10
2012,04,06,12,06,8.10
2012,04,06,12,07,8.10
2012,04,06,12,08,8.00
2012,04,06,12,09,8.00
2012,04,06,12,10,8.00
2012,04,06,12,11,8.00
2012,04,06,12,12,8.00
2012,04,06,12,13,8.00
2012,04,06,12,14,8.00
2012,04,06,12,15,8.00
2012,04,06,12,16,8.00
2012,04,06,12,17,8.00
2012,04,06,12,18,8.00
2012,04,06,12,19,8.10
2012,04,06,12,20,8.10
2012,04,06,12,21,8.10
2012,04,06,12,22,8.20
2012,04,06,12,23,8.20
2012,04,06,12,24,8.20
2012,04,06,12,25,8.30
2012,04,06,12,26,8.40
2012,04,06,12,27,8.40
2012,04,06,12,28,8.30
2012,04,06,12,29,8.30
2012,04,06,12,30,8.20
2012,04,06,12,31,8.10
2012,04,06,12,32,7.90
2012,04,06,12,33,7.80
2012,04,06,12,34,7.60
2012,04,06,12,35,7.50
2012,04,06,12,36,7.40
2012,04,06,12,37,7.20
2012,04,06,12,38,7.00
2012,04,06,12,39,6.90
2012,04,06,12,40,6.70
2012,04,06,12,41,6.50
2012,04,06,12,42,6.30
2012,04,06,12,43,6.20
2012,04,06,12,44,6.00
2012,04,06,12,45,5.90
2012,04,06,12,46,5.80
2012,04,06,12,47,5.60
2012,04,06,12,48,5.50
2012,04,06,12,49,5.40
2012,04,06,12,50,5.30
2012,04,06,12,51,5.30
2012,04,06,12,52,5.30
2012,04,06,12,53,5.40
2012,04,06,12,54,5.40
2012,04,06,12,55,5.40
2012,04,06,12,56,5.40
2012,04,06,12,57,5.50
2012,04,06,12,58,5.50
2012,04,06,12,59,5.60
2012,04,06,13,00,5.60
2012,04,06,13,01,5.70
2012,04,06,13,02,5.70
2012,04,06,13,03,5.80
2012,04,06,13,04,5.80
2012,04,06,13,05,5.90
2012,04,06,13,06,6.00
2012,04,06,13,07,6.00
2012,04,06,13,08,6.10
2012,04,06,13,09,6.20
2012,04,06,13,10,6.30
2012,04,06,13,11,6.30
2012,04,06,13,12,6.40
2012,04,06,13,13,6.50
2012,04,06,13,14,6.60
2012,04,06,13,15,6.70
2012,04,06,13,16,6.80
2012,04,06,13,17,6.80
2012,04,06,13,18,7.00
2012,04,06,13,19,7.00
2012,04,06,13,20,7.10
2012,04,06,13,21,7.20
2012,04,06,13,22,7.30
2012,04,06,13,23,7.40
2012,04,06,13,24,7.40
2012,04,06,13,25,7.40
2012,04,06,13,26,7.60
2012,04,06,13,27,7.60
2012,04,06,13,28,7.60
2012,04,06,13,29,7.70
2012,04,06,13,30,7.70
2012,04,06,13,31,7.70
2012,04,06,13,32,7.60
2012,04,06,13,33,7.60
2012,04,06,13,34,7.50
2012,04,06,13,35,7.50
2012,04,06,13,36,7.40
2012,04,06,13,37,7.30
2012,04,06,13,38,7.20
2012,04,06,13,39,7.10
2012,04,06,13,40,7.10
2012,04,06,13,41,7.00
2012,04,06,13,42,7.00
2012,04,06,13,43,6.90
2012,04,06,13,44,6.90
2012,04,06,13,45,6.80
2012,04,06,13,46,6.80
2012,04,06,13,47,6.90
2012,04,06,13,48,6.90
2012,04,06,13,49,6.90
2012,04,06,13,50,6.90
2012,04,06,13,51,6.90
2012,04,06,13,52,6.90
2012,04,06,13,53,6.90
2012,04,06,13,54,6.90
2012,04,06,13,55,7.00
2012,04,06,13,56,7.10
2012,04,06,13,57,7.20
2012,04,06,13,58,7.30
2012,04,06,13,59,7.30
2012,04,06,14,00,7.50
2012,04,06,14,01,7.50
2012,04,06,14,02,7.60
2012,04,06,14,03,7.60
2012,04,06,14,04,7.60
2012,04,06,14,05,7.60
2012,04,06,14,06,7.60
2012,04,06,14,07,7.60
2012,04,06,14,08,7.60
2012,04,06,14,09,7.60
2012,04,06,14,10,7.70
2012,04,06,14,11,7.70
2012,04,06,14,12,7.70
2012,04,06,14,13,7.70
2012,04,06,14,14,7.70
2012,04,06,14,15,7.70
2012,04,06,14,16,7.70
2012,04,06,14,17,7.70
2012,04,06,14,18,7.80
2012,04,06,14,19,7.80
2012,04,06,14,20,7.80
2012,04,06,14,21,7.80
2012,04,06,14,22,7.90
2012,04,06,14,23,7.90
2012,04,06,14,24,8.00
2012,04,06,14,25,8.00
2012,04,06,14,26,8.10
2012,04,06,14,27,8.20
2012,04,06,14,28,8.20
2012,04,06,14,29,8.30
2012,04,06,14,30,8.40
2012,04,06,14,31,8.60
2012,04,06,14,32,8.70
2012,04,06,14,33,8.80
2012,04,06,14,34,9.00
2012,04,06,14,35,9.00
2012,04,06,14,36,9.20
2012,04,06,14,37,9.20
2012,04,06,14,38,9.30
2012,04,06,14,39,9.40
2012,04,06,14,40,9.60
2012,04,06,14,41,9.70
2012,04,06,14,42,9.80
2012,04,06,14,43,9.80
2012,04,06,14,44,9.70
2012,04,06,14,45,9.70
2012,04,06,14,46,9.80
2012,04,06,14,47,9.80
2012,04,06,14,48,9.90
2012,04,06,14,49,9.90
2012,04,06,14,50,9.90
2012,04,06,14,51,9.80
2012,04,06,14,52,9.80
2012,04,06,14,53,9.80
2012,04,06,14,54,9.70
2012,04,06,14,55,9.60
2012,04,06,14,56,9.50
2012,04,06,14,57,9.50
2012,04,06,14,58,9.40
2012,04,06,14,59,9.30
2012,04,06,15,00,9.20
2012,04,06,15,01,9.20
2012,04,06,15,02,9.20
2012,04,06,15,03,9.20
2012,04,06,15,04,9.20
2012,04,06,15,05,9.20
2012,04,06,15,06,9.20
2012,04,06,15,07,9.20
2012,04,06,15,08,9.30
2012,04,06,15,09,9.30
2012,04,06,15,10,9.30
2012,04,06,15,11,9.30
2012,04,06,15,12,9.30
2012,04,06,15,13,9.40
2012,04,06,15,14,9.50
2012,04,06,15,15,9.50
2012,04,06,15,16,9.60
2012,04,06,15,17,9.70
2012,04,06,15,18,9.70
2012,04,06,15,19,9.80
2012,04,06,15,20,9.80
2012,04,06,15,21,9.90
2012,04,06,15,22,10.10
2012,04,06,15,23,10.30
2012,04,06,15,24,10.40
2012,04,06,15,25,10.40
2012,04,06,15,26,10.40
2012,04,06,15,27,10.40
2012,04,06,15,28,10.40
2012,04,06,15,29,10.40
2012,04,06,15,30,10.40
2012,04,06,15,31,10.40
2012,04,06,15,32,10.40
2012,04,06,15,33,10.40
2012,04,06,15,34,10.60
2012,04,06,15,35,10.60
2012,04,06,15,36,10.70
2012,04,06,15,37,10.80
2012,04,06,15,38,10.90
2012,04,06,15,39,10.90
2012,04,06,15,40,10.80
2012,04,06,15,41,10.50
2012,04,06,15,42,10.30
2012,04,06,15,43,10.20
2012,04,06,15,44,10.20
2012,04,06,15,45,10.10
2012,04,06,15,46,10.10
2012,04,06,15,47,10.10
2012,04,06,15,48,10.10
2012,04,06,15,49,10.10
2012,04,06,15,50,10.20
2012,04,06,15,51,10.30
2012,04,06,15,52,10.30
2012,04,06,15,53,10.20
2012,04,06,15,54,10.10
2012,04,06,15,55,9.90
2012,04,06,15,56,9.90
2012,04,06,15,57,9.90
2012,04,06,15,58,9.90
2012,04,06,15,59,10.00
2012,04,06,16,00,10.00
2012,04,06,16,01,10.10
2012,04,06,16,02,10.10
2012,04,06,16,03,10.10
2012,04,06,16,04,10.00
2012,04,06,16,05,9.90
2012,04,06,16,06,9.90
2012,04,06,16,07,9.90
2012,04,06,16,08,9.80
2012,04,06,16,09,9.70
2012,04,06,16,10,9.60
2012,04,06,16,11,9.60
2012,04,06,16,12,9.50
2012,04,06,16,13,9.40
2012,04,06,16,14,9.30
2012,04,06,16,15,9.30
2012,04,06,16,16,9.20
2012,04,06,16,17,9.10
2012,04,06,16,18,9.00
2012,04,06,16,19,8.90
2012,04,06,16,20,8.80
2012,04,06,16,21,8.70
2012,04,06,16,22,8.70
2012,04,06,16,23,8.60
2012,04,06,16,24,8.50
2012,04,06,16,25,8.50
2012,04,06,16,26,8.40
2012,04,06,16,27,8.40
2012,04,06,16,28,8.40
2012,04,06,16,29,8.40
2012,04,06,16,30,8.40
2012,04,06,16,31,8.50
2012,04,06,16,32,8.60
2012,04,06,16,33,8.80
2012,04,06,16,34,9.00
2012,04,06,16,35,9.10
2012,04,06,16,36,9.30
2012,04,06,16,37,9.40
2012,04,06,16,38,9.50
2012,04,06,16,39,9.70
2012,04,06,16,40,9.80
2012,04,06,16,41,9.90
2012,04,06,16,42,10.00
2012,04,06,16,43,10.10
2012,04,06,16,44,10.10
2012,04,06,16,45,10.20
2012,04,06,16,46,10.20
2012,04,06,16,47,10.30
2012,04,06,16,48,10.40
2012,04,06,16,49,10.40
2012,04,06,16,50,10.40
2012,04,06,16,51,10.40
2012,04,06,16,52,10.40
2012,04,06,16,53,10.40
2012,04,06,16,54,10.30
2012,04,06,16,55,10.20
2012,04,06,16,56,10.10
2012,04,06,16,57,10.00
2012,04,06,16,58,9.90
2012,04,06,16,59,9.80
2012,04,06,17,00,9.80
2012,04,06,17,01,9.70
2012,04,06,17,02,9.70
2012,04,06,17,03,9.70
2012,04,06,17,04,9.70
2012,04,06,17,05,9.60
2012,04,06,17,06,9.60
2012,04,06,17,07,9.60
2012,04,06,17,08,9.70
2012,04,06,17,09,9.70
2012,04,06,17,10,9.70
2012,04,06,17,11,9.70
2012,04,06,17,12,9.60
2012,04,06,17,13,9.60
2012,04,06,17,14,9.60
2012,04,06,17,15,9.60
2012,04,06,17,16,9.60
2012,04,06,17,17,9.60
2012,04,06,17,18,9.70
2012,04,06,17,19,9.70
2012,04,06,17,20,9.70
2012,04,06,17,21,9.70
2012,04,06,17,22,9.80
2012,04,06,17,23,9.80
2012,04,06,17,24,9.80
2012,04,06,17,25,9.90
2012,04,06,17,26,9.80
2012,04,06,17,27,9.80
2012,04,06,17,28,9.70
2012,04,06,17,29,9.60
2012,04,06,17,30,9.60
2012,04,06,17,31,9.60
2012,04,06,17,32,9.50
2012,04,06,17,33,9.50
2012,04,06,17,34,9.50
2012,04,06,17,35,9.50
2012,04,06,17,36,9.50
2012,04,06,17,37,9.40
2012,04,06,17,38,9.30
2012,04,06,17,39,9.30
2012,04,06,17,40,9.20
2012,04,06,17,41,9.20
2012,04,06,17,42,9.20
2012,04,06,17,43,9.20